Time,TemperatureF,DewpointF,PressureIn,WindDirection,WindDirectionDegrees,WindSpeedMPH,WindSpeedGustMPH,Humidity,HourlyPrecipIn,Conditions,Clouds,dailyrainin,SoftwareType,DateUTC
2013-06-14 00:01:00,57.8,50.5,30.22,WSW,247,1.2,3.3,75,0.00,,,0.00,Rainwise IP-100,2013-06-14 07:01:00,
2013-06-14 00:06:00,57.8,50.5,30.22,WSW,247,0.0,3.5,75,0.00,,,0.00,Rainwise IP-100,2013-06-14 07:06:00,
2013-06-14 00:11:00,57.7,50.0,30.22,SSW,202,0.0,2.8,75,0.00,,,0.00,Rainwise IP-100,2013-06-14 07:11:00,
2013-06-14 00:16:00,57.5,50.0,30.22,WSW,247,1.9,3.0,75,0.00,,,0.00,Rainwise IP-100,2013-06-14 07:16:00,
2013-06-14 00:21:00,57.3,50.0,30.22,WSW,247,1.9,3.5,76,0.00,,,0.00,Rainwise IP-100,2013-06-14 07:21:00,
2013-06-14 00:26:00,57.0,50.0,30.22,WSW,247,0.0,2.6,76,0.00,,,0.00,Rainwise IP-100,2013-06-14 07:26:00,
2013-06-14 00:31:00,56.9,50.0,30.22,SW,225,1.4,3.5,77,0.00,,,0.00,Rainwise IP-100,2013-06-14 07:31:00,
2013-06-14 00:36:00,56.7,49.0,30.22,WSW,247,0.0,2.8,77,0.00,,,0.00,Rainwise IP-100,2013-06-14 07:36:00,
2013-06-14 00:41:00,56.5,49.0,30.22,WSW,247,0.0,2.8,77,0.00,,,0.00,Rainwise IP-100,2013-06-14 07:41:00,
2013-06-14 00:46:00,56.4,49.0,30.23,SSW,202,0.0,4.0,77,0.00,,,0.00,Rainwise IP-100,2013-06-14 07:46:00,
2013-06-14 00:51:00,56.4,49.0,30.23,WSW,247,0.0,4.0,77,0.00,,,0.00,Rainwise IP-100,2013-06-14 07:51:00,
2013-06-14 00:56:00,56.3,49.0,30.23,SW,225,0.0,1.4,77,0.00,,,0.00,Rainwise IP-100,2013-06-14 07:56:00,
2013-06-14 01:01:00,56.3,49.0,30.23,WSW,247,0.0,3.0,77,0.00,,,0.00,Rainwise IP-100,2013-06-14 08:01:00,
2013-06-14 01:06:00,56.2,49.0,30.23,SW,225,0.0,2.3,77,0.00,,,0.00,Rainwise IP-100,2013-06-14 08:06:00,
2013-06-14 01:11:00,56.1,49.0,30.23,SSW,202,2.1,2.1,77,0.00,,,0.00,Rainwise IP-100,2013-06-14 08:11:00,
2013-06-14 01:16:00,55.9,49.0,30.23,SW,225,1.9,4.2,77,0.00,,,0.00,Rainwise IP-100,2013-06-14 08:16:00,
2013-06-14 01:21:00,55.7,49.0,30.23,SSW,202,1.9,3.0,78,0.00,,,0.00,Rainwise IP-100,2013-06-14 08:21:00,
2013-06-14 01:26:00,55.6,49.0,30.23,SSW,202,1.4,3.5,78,0.00,,,0.00,Rainwise IP-100,2013-06-14 08:26:00,
2013-06-14 01:31:00,55.5,49.0,30.23,SSW,202,1.2,4.4,78,0.00,,,0.00,Rainwise IP-100,2013-06-14 08:31:00,
2013-06-14 01:36:00,55.4,48.0,30.23,WSW,247,3.3,4.0,78,0.00,,,0.00,Rainwise IP-100,2013-06-14 08:36:00,
2013-06-14 01:41:00,55.2,48.0,30.23,SSW,202,0.0,5.8,78,0.00,,,0.00,Rainwise IP-100,2013-06-14 08:41:00,
2013-06-14 01:46:00,55.2,48.0,30.23,SW,225,2.3,4.7,78,0.00,,,0.00,Rainwise IP-100,2013-06-14 08:46:00,
2013-06-14 01:51:00,55.1,48.0,30.23,SW,225,1.6,2.8,78,0.00,,,0.00,Rainwise IP-100,2013-06-14 08:51:00,
2013-06-14 01:56:00,55.0,48.0,30.23,SSW,202,0.0,2.6,78,0.00,,,0.00,Rainwise IP-100,2013-06-14 08:56:00,
2013-06-14 02:01:00,55.0,48.0,30.22,SW,225,0.0,2.8,78,0.00,,,0.00,Rainwise IP-100,2013-06-14 09:01:00,
2013-06-14 02:06:00,55.0,49.0,30.22,SW,225,0.0,2.6,79,0.00,,,0.00,Rainwise IP-100,2013-06-14 09:06:00,
2013-06-14 02:11:00,55.0,49.0,30.22,SSW,202,0.0,2.8,79,0.00,,,0.00,Rainwise IP-100,2013-06-14 09:11:00,
2013-06-14 02:16:00,55.0,49.0,30.22,SSW,202,0.0,2.6,79,0.00,,,0.00,Rainwise IP-100,2013-06-14 09:16:00,
2013-06-14 02:21:00,55.0,49.0,30.22,South,180,0.0,1.4,79,0.00,,,0.00,Rainwise IP-100,2013-06-14 09:21:00,
2013-06-14 02:26:00,54.9,49.0,30.22,SSW,202,0.0,2.8,79,0.00,,,0.00,Rainwise IP-100,2013-06-14 09:26:00,
2013-06-14 02:31:00,54.9,49.0,30.22,SW,225,1.2,3.0,79,0.00,,,0.00,Rainwise IP-100,2013-06-14 09:31:00,
2013-06-14 02:36:00,54.8,49.0,30.22,SW,225,0.0,5.1,79,0.00,,,0.00,Rainwise IP-100,2013-06-14 09:36:00,
2013-06-14 02:41:00,54.8,49.0,30.22,SW,225,0.0,1.9,79,0.00,,,0.00,Rainwise IP-100,2013-06-14 09:41:00,
2013-06-14 02:46:00,54.8,49.0,30.22,SSW,202,1.2,2.8,79,0.00,,,0.00,Rainwise IP-100,2013-06-14 09:46:00,
2013-06-14 02:51:00,54.7,48.0,30.22,SW,225,2.1,4.2,79,0.00,,,0.00,Rainwise IP-100,2013-06-14 09:51:00,
2013-06-14 02:56:00,54.6,48.0,30.22,SW,225,1.6,4.2,79,0.00,,,0.00,Rainwise IP-100,2013-06-14 09:56:00,
2013-06-14 03:01:00,54.6,48.0,30.22,SSW,202,1.4,3.0,79,0.00,,,0.00,Rainwise IP-100,2013-06-14 10:01:00,
2013-06-14 03:06:00,54.6,48.0,30.22,SW,225,2.1,3.3,79,0.00,,,0.00,Rainwise IP-100,2013-06-14 10:06:00,
2013-06-14 03:11:00,54.5,48.0,30.22,SSW,202,1.9,3.7,79,0.00,,,0.00,Rainwise IP-100,2013-06-14 10:11:00,
2013-06-14 03:16:00,54.5,48.0,30.22,SW,225,2.3,3.5,78,0.00,,,0.00,Rainwise IP-100,2013-06-14 10:16:00,
2013-06-14 03:21:00,54.5,48.0,30.22,SW,225,1.4,3.0,78,0.00,,,0.00,Rainwise IP-100,2013-06-14 10:21:00,
2013-06-14 03:26:00,54.5,48.0,30.22,WSW,247,2.1,4.7,79,0.00,,,0.00,Rainwise IP-100,2013-06-14 10:26:00,
2013-06-14 03:31:00,54.4,48.0,30.22,SSW,202,1.2,4.7,78,0.00,,,0.00,Rainwise IP-100,2013-06-14 10:31:00,
2013-06-14 03:36:00,54.4,48.0,30.22,South,180,1.4,3.5,78,0.00,,,0.00,Rainwise IP-100,2013-06-14 10:36:00,
2013-06-14 03:41:00,54.5,48.0,30.23,SSW,202,1.2,3.7,78,0.00,,,0.00,Rainwise IP-100,2013-06-14 10:41:00,
2013-06-14 03:46:00,54.5,48.0,30.23,SW,225,1.9,5.4,78,0.00,,,0.00,Rainwise IP-100,2013-06-14 10:46:00,
2013-06-14 03:51:00,54.4,48.0,30.22,SW,225,2.3,4.0,78,0.00,,,0.00,Rainwise IP-100,2013-06-14 10:51:00,
2013-06-14 03:56:00,54.3,48.0,30.22,SSW,202,1.2,4.2,78,0.00,,,0.00,Rainwise IP-100,2013-06-14 10:56:00,
2013-06-14 04:01:00,54.3,48.0,30.22,SSW,202,0.0,4.9,78,0.00,,,0.00,Rainwise IP-100,2013-06-14 11:01:00,
2013-06-14 04:06:00,54.2,47.5,30.22,WSW,247,0.0,4.2,78,0.00,,,0.00,Rainwise IP-100,2013-06-14 11:06:00,
2013-06-14 04:11:00,54.2,47.5,30.22,SSW,202,1.2,3.3,78,0.00,,,0.00,Rainwise IP-100,2013-06-14 11:11:00,
2013-06-14 04:16:00,54.2,47.0,30.22,SW,225,3.0,3.0,77,0.00,,,0.00,Rainwise IP-100,2013-06-14 11:16:00,
2013-06-14 04:21:00,54.2,47.0,30.22,SSW,202,1.2,3.0,77,0.00,,,0.00,Rainwise IP-100,2013-06-14 11:21:00,
2013-06-14 04:26:00,54.2,47.0,30.22,SW,225,0.0,4.9,77,0.00,,,0.00,Rainwise IP-100,2013-06-14 11:26:00,
2013-06-14 04:31:00,54.3,47.5,30.22,SSW,202,0.0,4.2,77,0.00,,,0.00,Rainwise IP-100,2013-06-14 11:31:00,
2013-06-14 04:36:00,54.2,47.0,30.22,SW,225,1.4,4.0,77,0.00,,,0.00,Rainwise IP-100,2013-06-14 11:36:00,
2013-06-14 04:41:00,54.2,47.0,30.22,SW,225,0.0,2.1,77,0.00,,,0.00,Rainwise IP-100,2013-06-14 11:41:00,
2013-06-14 04:46:00,54.3,47.5,30.22,SW,225,2.3,4.2,77,0.00,,,0.00,Rainwise IP-100,2013-06-14 11:46:00,
2013-06-14 04:47:00,54.3,47.5,30.23,SW,225,1.4,4.2,77,0.00,,,0.00,Rainwise IP-100,2013-06-14 11:47:00,
2013-06-14 04:50:00,54.3,47.5,30.22,SW,225,2.3,2.8,77,0.00,,,0.00,Rainwise IP-100,2013-06-14 11:50:00,
2013-06-14 04:55:00,54.3,47.5,30.22,WSW,247,2.1,4.7,77,0.00,,,0.00,Rainwise IP-100,2013-06-14 11:55:00,
2013-06-14 05:00:00,54.3,47.5,30.23,SW,225,2.6,4.2,77,0.00,,,0.00,Rainwise IP-100,2013-06-14 12:00:00,
2013-06-14 05:05:00,54.3,47.5,30.22,SSW,202,3.7,4.0,77,0.00,,,0.00,Rainwise IP-100,2013-06-14 12:05:00,
2013-06-14 05:10:00,54.3,48.0,30.22,SW,225,1.6,4.4,78,0.00,,,0.00,Rainwise IP-100,2013-06-14 12:10:00,
2013-06-14 05:15:00,54.2,47.5,30.22,WSW,247,1.4,4.2,78,0.00,,,0.00,Rainwise IP-100,2013-06-14 12:15:00,
2013-06-14 05:20:00,54.2,47.5,30.22,WSW,247,2.3,3.7,78,0.00,,,0.00,Rainwise IP-100,2013-06-14 12:20:00,
2013-06-14 05:25:00,54.3,48.0,30.23,SSW,202,2.3,3.7,78,0.00,,,0.00,Rainwise IP-100,2013-06-14 12:25:00,
2013-06-14 05:30:00,54.3,48.0,30.22,SW,225,1.9,4.2,78,0.00,,,0.00,Rainwise IP-100,2013-06-14 12:30:00,
2013-06-14 05:35:00,54.3,48.0,30.23,SW,225,1.2,3.0,78,0.00,,,0.00,Rainwise IP-100,2013-06-14 12:35:00,
2013-06-14 05:41:00,54.3,48.0,30.23,SSW,202,2.6,4.4,78,0.00,,,0.00,Rainwise IP-100,2013-06-14 12:41:00,
2013-06-14 05:46:00,54.3,48.0,30.23,WSW,247,3.5,3.5,78,0.00,,,0.00,Rainwise IP-100,2013-06-14 12:46:00,
2013-06-14 05:51:00,54.4,48.0,30.23,SSW,202,2.1,4.2,78,0.00,,,0.00,Rainwise IP-100,2013-06-14 12:51:00,
2013-06-14 05:56:00,54.4,48.0,30.23,SSW,202,1.6,4.2,78,0.00,,,0.00,Rainwise IP-100,2013-06-14 12:56:00,
2013-06-14 06:01:00,54.4,48.0,30.23,SSW,202,2.6,5.1,78,0.00,,,0.00,Rainwise IP-100,2013-06-14 13:01:00,
2013-06-14 06:06:00,54.4,48.0,30.23,SSW,202,0.0,5.1,78,0.00,,,0.00,Rainwise IP-100,2013-06-14 13:06:00,
2013-06-14 06:11:00,54.4,48.0,30.23,SSW,202,1.6,4.0,78,0.00,,,0.00,Rainwise IP-100,2013-06-14 13:11:00,
2013-06-14 06:16:00,54.5,48.0,30.24,WSW,247,0.0,3.7,78,0.00,,,0.00,Rainwise IP-100,2013-06-14 13:16:00,
2013-06-14 06:21:00,54.5,48.0,30.24,WSW,247,1.4,3.3,78,0.00,,,0.00,Rainwise IP-100,2013-06-14 13:21:00,
2013-06-14 06:26:00,54.5,48.0,30.24,SSW,202,3.7,5.8,78,0.00,,,0.00,Rainwise IP-100,2013-06-14 13:26:00,
2013-06-14 06:31:00,54.5,48.0,30.23,SW,225,1.4,5.1,78,0.00,,,0.00,Rainwise IP-100,2013-06-14 13:31:00,
2013-06-14 06:36:00,54.6,48.0,30.23,SSW,202,1.6,3.5,78,0.00,,,0.00,Rainwise IP-100,2013-06-14 13:36:00,
2013-06-14 06:41:00,54.6,48.0,30.24,SW,225,1.2,4.0,78,0.00,,,0.00,Rainwise IP-100,2013-06-14 13:41:00,
2013-06-14 06:46:00,54.6,48.0,30.23,South,180,0.0,2.8,78,0.00,,,0.00,Rainwise IP-100,2013-06-14 13:46:00,
2013-06-14 06:51:00,54.6,48.0,30.23,WSW,247,2.1,4.7,78,0.00,,,0.00,Rainwise IP-100,2013-06-14 13:51:00,
2013-06-14 06:56:00,54.6,48.0,30.23,SSW,202,0.0,2.3,78,0.00,,,0.00,Rainwise IP-100,2013-06-14 13:56:00,
2013-06-14 07:01:00,54.6,48.0,30.24,South,180,1.9,4.7,78,0.00,,,0.00,Rainwise IP-100,2013-06-14 14:01:00,
2013-06-14 07:06:00,54.6,48.0,30.23,SSE,157,0.0,3.5,78,0.00,,,0.00,Rainwise IP-100,2013-06-14 14:06:00,
2013-06-14 07:11:00,54.6,48.0,30.23,WSW,247,1.2,4.7,78,0.00,,,0.00,Rainwise IP-100,2013-06-14 14:11:00,
2013-06-14 07:16:00,54.6,48.0,30.23,South,180,1.4,2.8,78,0.00,,,0.00,Rainwise IP-100,2013-06-14 14:16:00,
2013-06-14 07:21:00,54.6,48.0,30.23,SSW,202,1.4,2.1,78,0.00,,,0.00,Rainwise IP-100,2013-06-14 14:21:00,
2013-06-14 07:26:00,54.7,48.0,30.23,SW,225,1.4,3.3,78,0.00,,,0.00,Rainwise IP-100,2013-06-14 14:26:00,
2013-06-14 07:31:00,54.8,48.0,30.23,SSW,202,1.4,3.7,78,0.00,,,0.00,Rainwise IP-100,2013-06-14 14:31:00,
2013-06-14 07:36:00,54.8,48.0,30.23,SSW,202,1.9,4.2,78,0.00,,,0.00,Rainwise IP-100,2013-06-14 14:36:00,
2013-06-14 07:41:00,54.9,48.0,30.23,SW,225,1.6,4.7,77,0.00,,,0.00,Rainwise IP-100,2013-06-14 14:41:00,
2013-06-14 07:46:00,54.8,48.0,30.23,SSW,202,2.3,4.4,77,0.00,,,0.00,Rainwise IP-100,2013-06-14 14:46:00,
2013-06-14 07:51:00,54.7,48.0,30.23,SW,225,1.4,3.5,78,0.00,,,0.00,Rainwise IP-100,2013-06-14 14:51:00,
2013-06-14 07:56:00,54.7,48.0,30.23,SW,225,4.0,4.0,78,0.00,,,0.00,Rainwise IP-100,2013-06-14 14:56:00,
2013-06-14 08:01:00,54.7,48.0,30.23,SW,225,0.0,4.2,78,0.00,,,0.00,Rainwise IP-100,2013-06-14 15:01:00,
2013-06-14 08:06:00,54.8,48.0,30.23,SSW,202,3.0,4.2,78,0.00,,,0.00,Rainwise IP-100,2013-06-14 15:06:00,
2013-06-14 08:11:00,54.8,48.0,30.23,South,180,3.5,4.7,78,0.00,,,0.00,Rainwise IP-100,2013-06-14 15:11:00,
2013-06-14 08:16:00,54.8,48.0,30.23,SW,225,0.0,4.9,78,0.00,,,0.00,Rainwise IP-100,2013-06-14 15:16:00,
2013-06-14 08:21:00,54.8,48.0,30.23,South,180,1.2,5.4,78,0.00,,,0.00,Rainwise IP-100,2013-06-14 15:21:00,
2013-06-14 08:26:00,54.7,48.0,30.23,WSW,247,1.4,4.0,79,0.00,,,0.00,Rainwise IP-100,2013-06-14 15:26:00,
2013-06-14 08:31:00,54.6,48.0,30.24,WSW,247,3.0,4.0,79,0.00,,,0.00,Rainwise IP-100,2013-06-14 15:31:00,
2013-06-14 08:36:00,54.6,48.0,30.23,SW,225,0.0,4.0,79,0.00,,,0.00,Rainwise IP-100,2013-06-14 15:36:00,
2013-06-14 08:41:00,54.8,49.0,30.23,SW,225,1.9,4.9,79,0.00,,,0.00,Rainwise IP-100,2013-06-14 15:41:00,
2013-06-14 08:46:00,54.8,49.0,30.23,SSW,202,1.4,4.9,79,0.00,,,0.00,Rainwise IP-100,2013-06-14 15:46:00,
2013-06-14 08:51:00,54.9,49.0,30.23,WSW,247,3.0,4.2,79,0.00,,,0.00,Rainwise IP-100,2013-06-14 15:51:00,
2013-06-14 08:56:00,55.0,49.0,30.23,SW,225,1.6,4.9,79,0.00,,,0.00,Rainwise IP-100,2013-06-14 15:56:00,
2013-06-14 09:01:00,55.2,49.0,30.23,SW,225,1.9,3.3,79,0.00,,,0.00,Rainwise IP-100,2013-06-14 16:01:00,
2013-06-14 09:06:00,55.4,49.0,30.23,SW,225,2.8,3.3,79,0.00,,,0.00,Rainwise IP-100,2013-06-14 16:06:00,
2013-06-14 09:11:00,55.4,49.0,30.23,SSW,202,1.4,4.7,79,0.00,,,0.00,Rainwise IP-100,2013-06-14 16:11:00,
2013-06-14 09:16:00,55.5,50.0,30.23,SSW,202,1.9,3.0,79,0.00,,,0.00,Rainwise IP-100,2013-06-14 16:16:00,
2013-06-14 09:21:00,55.6,49.0,30.23,SSW,202,2.3,3.0,78,0.00,,,0.00,Rainwise IP-100,2013-06-14 16:21:00,
2013-06-14 09:26:00,55.7,49.0,30.23,SSW,202,1.2,5.8,78,0.00,,,0.00,Rainwise IP-100,2013-06-14 16:26:00,
2013-06-14 09:31:00,55.8,49.0,30.23,SSW,202,1.2,3.5,77,0.00,,,0.00,Rainwise IP-100,2013-06-14 16:31:00,
2013-06-14 09:36:00,55.9,49.0,30.23,SW,225,0.0,3.7,77,0.00,,,0.00,Rainwise IP-100,2013-06-14 16:36:00,
2013-06-14 09:41:00,56.0,49.0,30.23,SW,225,2.1,3.7,77,0.00,,,0.00,Rainwise IP-100,2013-06-14 16:41:00,
2013-06-14 09:46:00,56.2,48.0,30.23,South,180,1.9,4.0,76,0.00,,,0.00,Rainwise IP-100,2013-06-14 16:46:00,
2013-06-14 09:51:00,56.3,49.0,30.23,SSW,202,0.0,2.8,76,0.00,,,0.00,Rainwise IP-100,2013-06-14 16:51:00,
2013-06-14 09:56:00,56.3,49.0,30.23,WSW,247,1.6,4.2,76,0.00,,,0.00,Rainwise IP-100,2013-06-14 16:56:00,
2013-06-14 10:01:00,56.2,48.0,30.23,SW,225,1.6,3.5,76,0.00,,,0.00,Rainwise IP-100,2013-06-14 17:01:00,
2013-06-14 10:06:00,56.0,49.0,30.23,SSW,202,1.9,3.0,77,0.00,,,0.00,Rainwise IP-100,2013-06-14 17:06:00,
2013-06-14 10:11:00,55.9,49.0,30.23,WSW,247,0.0,2.6,77,0.00,,,0.00,Rainwise IP-100,2013-06-14 17:11:00,
2013-06-14 10:16:00,55.9,49.0,30.23,WSW,247,0.0,3.0,77,0.00,,,0.00,Rainwise IP-100,2013-06-14 17:16:00,
2013-06-14 10:21:00,56.0,49.0,30.23,South,180,0.0,1.9,77,0.00,,,0.00,Rainwise IP-100,2013-06-14 17:21:00,
2013-06-14 10:26:00,56.0,49.0,30.23,SSW,202,0.0,3.0,77,0.00,,,0.00,Rainwise IP-100,2013-06-14 17:26:00,
2013-06-14 10:31:00,56.1,48.0,30.23,SW,225,1.9,3.3,76,0.00,,,0.00,Rainwise IP-100,2013-06-14 17:31:00,
2013-06-14 10:36:00,56.5,49.0,30.22,South,180,0.0,3.0,75,0.00,,,0.00,Rainwise IP-100,2013-06-14 17:36:00,
2013-06-14 10:41:00,57.0,49.0,30.23,WSW,247,1.2,2.8,74,0.00,,,0.00,Rainwise IP-100,2013-06-14 17:41:00,
2013-06-14 10:46:00,57.3,50.0,30.23,SE,135,1.2,2.8,74,0.00,,,0.00,Rainwise IP-100,2013-06-14 17:46:00,
2013-06-14 10:51:00,57.7,49.0,30.23,SW,225,1.4,3.3,72,0.00,,,0.00,Rainwise IP-100,2013-06-14 17:51:00,
2013-06-14 10:56:00,57.8,49.0,30.23,SW,225,1.4,4.7,71,0.00,,,0.00,Rainwise IP-100,2013-06-14 17:56:00,
2013-06-14 11:01:00,57.7,48.0,30.23,South,180,1.9,3.0,71,0.00,,,0.00,Rainwise IP-100,2013-06-14 18:01:00,
2013-06-14 11:06:00,57.6,48.0,30.23,SW,225,1.2,2.6,71,0.00,,,0.00,Rainwise IP-100,2013-06-14 18:06:00,
2013-06-14 11:11:00,57.6,49.0,30.23,SSE,157,0.0,4.0,72,0.00,,,0.00,Rainwise IP-100,2013-06-14 18:11:00,
2013-06-14 11:16:00,57.7,49.0,30.23,SSW,202,1.4,2.3,72,0.00,,,0.00,Rainwise IP-100,2013-06-14 18:16:00,
2013-06-14 11:21:00,57.9,49.0,30.23,SW,225,1.6,3.3,71,0.00,,,0.00,Rainwise IP-100,2013-06-14 18:21:00,
2013-06-14 11:26:00,58.2,48.0,30.23,SSW,202,1.6,3.3,70,0.00,,,0.00,Rainwise IP-100,2013-06-14 18:26:00,
2013-06-14 11:31:00,58.5,49.0,30.23,WSW,247,2.3,2.8,69,0.00,,,0.00,Rainwise IP-100,2013-06-14 18:31:00,
2013-06-14 11:36:00,58.9,48.0,30.22,SSW,202,1.6,4.4,68,0.00,,,0.00,Rainwise IP-100,2013-06-14 18:36:00,
2013-06-14 11:41:00,59.3,49.0,30.22,SSW,202,1.2,2.8,68,0.00,,,0.00,Rainwise IP-100,2013-06-14 18:41:00,
2013-06-14 11:46:00,59.8,48.0,30.23,South,180,0.0,3.5,66,0.00,,,0.00,Rainwise IP-100,2013-06-14 18:46:00,
2013-06-14 11:51:00,59.9,47.5,30.23,SW,225,1.6,3.0,64,0.00,,,0.00,Rainwise IP-100,2013-06-14 18:51:00,
2013-06-14 11:56:00,60.1,47.5,30.22,SW,225,1.2,4.2,64,0.00,,,0.00,Rainwise IP-100,2013-06-14 18:56:00,
2013-06-14 12:01:00,60.4,48.0,30.22,SSW,202,1.4,3.5,64,0.00,,,0.00,Rainwise IP-100,2013-06-14 19:01:00,
2013-06-14 12:06:00,60.6,48.0,30.22,SSE,157,2.6,2.6,65,0.00,,,0.00,Rainwise IP-100,2013-06-14 19:06:00,
2013-06-14 12:11:00,60.7,48.0,30.23,SW,225,1.6,2.8,64,0.00,,,0.00,Rainwise IP-100,2013-06-14 19:11:00,
2013-06-14 12:16:00,61.0,49.0,30.22,SSW,202,2.1,2.8,64,0.00,,,0.00,Rainwise IP-100,2013-06-14 19:16:00,
2013-06-14 12:21:00,61.4,49.0,30.22,WSW,247,1.6,3.3,64,0.00,,,0.00,Rainwise IP-100,2013-06-14 19:21:00,
2013-06-14 12:26:00,61.6,50.0,30.22,WSW,247,1.6,3.3,65,0.00,,,0.00,Rainwise IP-100,2013-06-14 19:26:00,
2013-06-14 12:31:00,61.6,50.0,30.22,WSW,247,1.2,4.7,65,0.00,,,0.00,Rainwise IP-100,2013-06-14 19:31:00,
2013-06-14 12:36:00,61.3,50.0,30.22,SW,225,1.4,2.8,65,0.00,,,0.00,Rainwise IP-100,2013-06-14 19:36:00,
2013-06-14 12:41:00,60.9,50.0,30.22,SSE,157,0.0,2.8,66,0.00,,,0.00,Rainwise IP-100,2013-06-14 19:41:00,
2013-06-14 12:46:00,60.9,49.0,30.22,SSW,202,2.3,2.3,65,0.00,,,0.00,Rainwise IP-100,2013-06-14 19:46:00,
2013-06-14 12:51:00,60.9,49.0,30.22,SSW,202,2.3,4.2,65,0.00,,,0.00,Rainwise IP-100,2013-06-14 19:51:00,
2013-06-14 12:56:00,60.5,48.0,30.22,SSW,202,3.0,3.3,64,0.00,,,0.00,Rainwise IP-100,2013-06-14 19:56:00,
2013-06-14 13:01:00,60.2,47.5,30.22,SSW,202,1.4,3.5,64,0.00,,,0.00,Rainwise IP-100,2013-06-14 20:01:00,
2013-06-14 13:06:00,60.4,48.0,30.21,SW,225,1.9,2.8,65,0.00,,,0.00,Rainwise IP-100,2013-06-14 20:06:00,
2013-06-14 13:11:00,60.5,48.0,30.21,SSW,202,1.4,4.2,65,0.00,,,0.00,Rainwise IP-100,2013-06-14 20:11:00,
2013-06-14 13:16:00,60.4,48.0,30.22,SSW,202,2.6,4.4,65,0.00,,,0.00,Rainwise IP-100,2013-06-14 20:16:00,
2013-06-14 13:21:00,60.1,48.0,30.22,SW,225,1.2,5.1,65,0.00,,,0.00,Rainwise IP-100,2013-06-14 20:21:00,
2013-06-14 13:26:00,59.8,48.0,30.21,SW,225,2.3,4.9,65,0.00,,,0.00,Rainwise IP-100,2013-06-14 20:26:00,
2013-06-14 13:31:00,59.9,48.0,30.22,SSE,157,0.0,3.3,66,0.00,,,0.00,Rainwise IP-100,2013-06-14 20:31:00,
2013-06-14 13:36:00,59.9,48.0,30.21,SW,225,2.1,2.8,66,0.00,,,0.00,Rainwise IP-100,2013-06-14 20:36:00,
2013-06-14 13:41:00,60.0,48.0,30.21,SSW,202,1.6,3.3,66,0.00,,,0.00,Rainwise IP-100,2013-06-14 20:41:00,
2013-06-14 13:46:00,60.0,48.0,30.21,WSW,247,1.2,3.3,65,0.00,,,0.00,Rainwise IP-100,2013-06-14 20:46:00,
2013-06-14 13:51:00,59.9,48.0,30.21,SE,135,1.2,4.2,65,0.00,,,0.00,Rainwise IP-100,2013-06-14 20:51:00,
2013-06-14 13:56:00,59.9,47.5,30.21,South,180,1.9,2.8,64,0.00,,,0.00,Rainwise IP-100,2013-06-14 20:56:00,
2013-06-14 14:01:00,60.4,48.0,30.21,SW,225,1.9,3.3,64,0.00,,,0.00,Rainwise IP-100,2013-06-14 21:01:00,
2013-06-14 14:06:00,60.9,49.0,30.21,SSW,202,1.2,3.0,64,0.00,,,0.00,Rainwise IP-100,2013-06-14 21:06:00,
2013-06-14 14:11:00,61.0,48.0,30.20,SSW,202,1.4,3.5,63,0.00,,,0.00,Rainwise IP-100,2013-06-14 21:11:00,
2013-06-14 14:16:00,61.2,48.0,30.21,SW,225,0.0,2.3,63,0.00,,,0.00,Rainwise IP-100,2013-06-14 21:16:00,
2013-06-14 14:21:00,61.5,49.0,30.20,SSW,202,0.0,3.5,64,0.00,,,0.00,Rainwise IP-100,2013-06-14 21:21:00,
2013-06-14 14:26:00,62.0,49.0,30.20,SW,225,1.9,3.5,63,0.00,,,0.00,Rainwise IP-100,2013-06-14 21:26:00,
2013-06-14 14:31:00,62.4,49.0,30.20,WSW,247,1.9,3.7,62,0.00,,,0.00,Rainwise IP-100,2013-06-14 21:31:00,
2013-06-14 14:36:00,62.6,49.0,30.20,South,180,0.0,3.7,61,0.00,,,0.00,Rainwise IP-100,2013-06-14 21:36:00,
2013-06-14 14:41:00,63.3,50.0,30.20,SSW,202,2.1,2.3,61,0.00,,,0.00,Rainwise IP-100,2013-06-14 21:41:00,
2013-06-14 14:46:00,63.9,50.5,30.20,South,180,0.0,3.7,61,0.00,,,0.00,Rainwise IP-100,2013-06-14 21:46:00,
2013-06-14 14:51:00,63.9,50.5,30.19,SSW,202,1.2,3.3,62,0.00,,,0.00,Rainwise IP-100,2013-06-14 21:51:00,
2013-06-14 14:56:00,64.1,50.5,30.19,SSW,202,1.4,2.3,62,0.00,,,0.00,Rainwise IP-100,2013-06-14 21:56:00,
2013-06-14 15:01:00,64.3,50.5,30.19,SSE,157,0.0,3.7,61,0.00,,,0.00,Rainwise IP-100,2013-06-14 22:01:00,
2013-06-14 15:06:00,64.4,50.5,30.19,WSW,247,1.4,3.0,60,0.00,,,0.00,Rainwise IP-100,2013-06-14 22:06:00,
2013-06-14 15:11:00,64.1,49.0,30.19,WSW,247,1.4,3.3,59,0.00,,,0.00,Rainwise IP-100,2013-06-14 22:11:00,
2013-06-14 15:16:00,63.8,49.0,30.18,WSW,247,1.6,2.8,59,0.00,,,0.00,Rainwise IP-100,2013-06-14 22:16:00,
2013-06-14 15:21:00,64.3,49.0,30.18,SSW,202,1.9,2.6,58,0.00,,,0.00,Rainwise IP-100,2013-06-14 22:21:00,
2013-06-14 15:26:00,64.9,50.0,30.18,SW,225,1.4,2.8,58,0.00,,,0.00,Rainwise IP-100,2013-06-14 22:26:00,
2013-06-14 15:31:00,65.1,50.0,30.18,SSE,157,0.0,2.6,58,0.00,,,0.00,Rainwise IP-100,2013-06-14 22:31:00,
2013-06-14 15:36:00,65.0,50.0,30.18,SSE,157,0.0,2.8,58,0.00,,,0.00,Rainwise IP-100,2013-06-14 22:36:00,
2013-06-14 15:41:00,64.8,50.0,30.18,South,180,1.2,2.8,58,0.00,,,0.00,Rainwise IP-100,2013-06-14 22:41:00,
2013-06-14 15:46:00,64.4,49.0,30.18,SSW,202,0.0,3.7,58,0.00,,,0.00,Rainwise IP-100,2013-06-14 22:46:00,
2013-06-14 15:51:00,64.3,49.0,30.18,SSE,157,0.0,4.0,57,0.00,,,0.00,Rainwise IP-100,2013-06-14 22:51:00,
2013-06-14 15:56:00,64.4,49.0,30.18,SSE,157,2.3,3.3,57,0.00,,,0.00,Rainwise IP-100,2013-06-14 22:56:00,
2013-06-14 16:01:00,64.5,49.0,30.18,East,90,0.0,2.8,57,0.00,,,0.00,Rainwise IP-100,2013-06-14 23:01:00,
2013-06-14 16:06:00,64.4,49.0,30.18,SSE,157,1.9,0.0,58,0.00,,,0.00,Rainwise IP-100,2013-06-14 23:06:00,
2013-06-14 16:11:00,64.3,49.0,30.18,SSW,202,1.4,2.6,57,0.00,,,0.00,Rainwise IP-100,2013-06-14 23:11:00,
2013-06-14 16:16:00,64.4,48.0,30.17,SSE,157,0.0,2.1,56,0.00,,,0.00,Rainwise IP-100,2013-06-14 23:16:00,
2013-06-14 16:21:00,64.5,48.0,30.17,South,180,0.0,1.4,56,0.00,,,0.00,Rainwise IP-100,2013-06-14 23:21:00,
2013-06-14 16:26:00,64.3,48.0,30.17,South,180,0.0,1.4,56,0.00,,,0.00,Rainwise IP-100,2013-06-14 23:26:00,
2013-06-14 16:31:00,64.3,48.0,30.16,SE,135,0.0,1.9,56,0.00,,,0.00,Rainwise IP-100,2013-06-14 23:31:00,
2013-06-14 16:36:00,64.6,48.0,30.17,SSE,157,1.4,1.9,56,0.00,,,0.00,Rainwise IP-100,2013-06-14 23:36:00,
2013-06-14 16:41:00,64.8,49.0,30.16,South,180,0.0,3.0,57,0.00,,,0.00,Rainwise IP-100,2013-06-14 23:41:00,
2013-06-14 16:46:00,64.8,49.0,30.16,South,180,2.6,3.5,57,0.00,,,0.00,Rainwise IP-100,2013-06-14 23:46:00,
2013-06-14 16:51:00,64.8,49.0,30.16,South,180,0.0,3.5,57,0.00,,,0.00,Rainwise IP-100,2013-06-14 23:51:00,
2013-06-14 16:56:00,64.7,49.0,30.16,SSW,202,1.2,1.6,57,0.00,,,0.00,Rainwise IP-100,2013-06-14 23:56:00,
2013-06-14 17:01:00,64.4,49.0,30.15,SSW,202,1.4,2.1,57,0.00,,,0.00,Rainwise IP-100,2013-06-15 00:01:00,
2013-06-14 17:06:00,64.3,49.0,30.15,SSE,157,0.0,2.3,57,0.00,,,0.00,Rainwise IP-100,2013-06-15 00:06:00,
2013-06-14 17:11:00,64.4,48.0,30.15,South,180,0.0,2.8,56,0.00,,,0.00,Rainwise IP-100,2013-06-15 00:11:00,
2013-06-14 17:16:00,64.3,48.0,30.15,SSE,157,1.2,2.8,56,0.00,,,0.00,Rainwise IP-100,2013-06-15 00:16:00,
2013-06-14 17:21:00,64.0,48.0,30.14,South,180,1.9,2.1,56,0.00,,,0.00,Rainwise IP-100,2013-06-15 00:21:00,
2013-06-14 17:26:00,63.8,48.0,30.14,SSW,202,0.0,2.8,57,0.00,,,0.00,Rainwise IP-100,2013-06-15 00:26:00,
2013-06-14 17:32:00,63.9,48.0,30.14,SSE,157,0.0,3.5,57,0.00,,,0.00,Rainwise IP-100,2013-06-15 00:32:00,
2013-06-14 17:37:00,64.0,48.0,30.14,SSE,157,0.0,0.0,57,0.00,,,0.00,Rainwise IP-100,2013-06-15 00:37:00,
2013-06-14 17:42:00,64.0,48.0,30.13,SE,135,0.0,3.5,57,0.00,,,0.00,Rainwise IP-100,2013-06-15 00:42:00,
2013-06-14 17:47:00,63.8,49.0,30.13,SE,135,0.0,0.0,58,0.00,,,0.00,Rainwise IP-100,2013-06-15 00:47:00,
2013-06-14 17:52:00,63.6,48.0,30.13,SE,135,0.0,0.0,58,0.00,,,0.00,Rainwise IP-100,2013-06-15 00:52:00,
2013-06-14 17:57:00,63.4,49.0,30.12,SE,135,0.0,1.2,59,0.00,,,0.00,Rainwise IP-100,2013-06-15 00:57:00,
2013-06-14 18:02:00,63.4,49.0,30.13,SSW,202,0.0,1.6,59,0.00,,,0.00,Rainwise IP-100,2013-06-15 01:02:00,
2013-06-14 18:07:00,63.5,49.0,30.12,SSW,202,0.0,1.2,59,0.00,,,0.00,Rainwise IP-100,2013-06-15 01:07:00,
2013-06-14 18:12:00,63.5,49.0,30.12,South,180,0.0,2.1,59,0.00,,,0.00,Rainwise IP-100,2013-06-15 01:12:00,
2013-06-14 18:17:00,63.5,49.0,30.12,South,180,0.0,0.0,59,0.00,,,0.00,Rainwise IP-100,2013-06-15 01:17:00,
2013-06-14 18:22:00,63.3,48.0,30.12,South,180,0.0,0.0,58,0.00,,,0.00,Rainwise IP-100,2013-06-15 01:22:00,
2013-06-14 18:27:00,63.3,49.0,30.11,South,180,0.0,1.2,59,0.00,,,0.00,Rainwise IP-100,2013-06-15 01:27:00,
2013-06-14 18:32:00,63.4,49.0,30.11,South,180,0.0,2.1,60,0.00,,,0.00,Rainwise IP-100,2013-06-15 01:32:00,
2013-06-14 18:37:00,63.5,49.0,30.11,SSW,202,0.0,1.6,59,0.00,,,0.00,Rainwise IP-100,2013-06-15 01:37:00,
2013-06-14 18:42:00,63.5,49.0,30.11,SSW,202,0.0,1.4,59,0.00,,,0.00,Rainwise IP-100,2013-06-15 01:42:00,
2013-06-14 18:47:00,63.5,49.0,30.11,SSW,202,0.0,0.0,60,0.00,,,0.00,Rainwise IP-100,2013-06-15 01:47:00,
2013-06-14 18:52:00,63.4,49.0,30.10,SE,135,0.0,2.6,60,0.00,,,0.00,Rainwise IP-100,2013-06-15 01:52:00,
2013-06-14 18:57:00,63.5,49.0,30.10,SE,135,0.0,0.0,60,0.00,,,0.00,Rainwise IP-100,2013-06-15 01:57:00,
2013-06-14 19:02:00,63.6,49.0,30.10,SE,135,0.0,0.0,59,0.00,,,0.00,Rainwise IP-100,2013-06-15 02:02:00,
2013-06-14 19:07:00,63.5,49.0,30.10,South,180,0.0,1.6,59,0.00,,,0.00,Rainwise IP-100,2013-06-15 02:07:00,
2013-06-14 19:12:00,63.4,49.0,30.10,South,180,0.0,0.0,59,0.00,,,0.00,Rainwise IP-100,2013-06-15 02:12:00,
2013-06-14 19:17:00,63.3,49.0,30.10,South,180,0.0,1.2,59,0.00,,,0.00,Rainwise IP-100,2013-06-15 02:17:00,
2013-06-14 19:22:00,63.3,49.0,30.10,South,180,0.0,1.2,59,0.00,,,0.00,Rainwise IP-100,2013-06-15 02:22:00,
2013-06-14 19:27:00,63.3,49.0,30.10,South,180,0.0,0.0,59,0.00,,,0.00,Rainwise IP-100,2013-06-15 02:27:00,
2013-06-14 19:32:00,63.3,49.0,30.10,South,180,0.0,0.0,59,0.00,,,0.00,Rainwise IP-100,2013-06-15 02:32:00,
2013-06-14 19:37:00,63.3,49.0,30.10,South,180,0.0,0.0,59,0.00,,,0.00,Rainwise IP-100,2013-06-15 02:37:00,
2013-06-14 19:42:00,63.1,48.0,30.10,South,180,0.0,1.2,59,0.00,,,0.00,Rainwise IP-100,2013-06-15 02:42:00,
2013-06-14 19:47:00,63.0,49.0,30.09,South,180,0.0,0.0,60,0.00,,,0.00,Rainwise IP-100,2013-06-15 02:47:00,
2013-06-14 19:52:00,63.0,49.0,30.09,South,180,0.0,1.4,60,0.00,,,0.00,Rainwise IP-100,2013-06-15 02:52:00,
2013-06-14 19:57:00,62.8,49.0,30.09,South,180,0.0,0.0,60,0.00,,,0.00,Rainwise IP-100,2013-06-15 02:57:00,
2013-06-14 20:02:00,62.7,48.0,30.09,South,180,0.0,0.0,60,0.00,,,0.00,Rainwise IP-100,2013-06-15 03:02:00,
2013-06-14 20:07:00,62.6,49.0,30.09,South,180,0.0,0.0,61,0.00,,,0.00,Rainwise IP-100,2013-06-15 03:07:00,
2013-06-14 20:12:00,62.3,49.0,30.09,South,180,0.0,0.0,61,0.00,,,0.00,Rainwise IP-100,2013-06-15 03:12:00,
2013-06-14 20:17:00,62.1,49.0,30.09,South,180,0.0,0.0,62,0.00,,,0.00,Rainwise IP-100,2013-06-15 03:17:00,
2013-06-14 20:22:00,61.8,49.0,30.09,South,180,0.0,0.0,62,0.00,,,0.00,Rainwise IP-100,2013-06-15 03:22:00,
2013-06-14 20:27:00,61.6,48.0,30.09,South,180,0.0,0.0,62,0.00,,,0.00,Rainwise IP-100,2013-06-15 03:27:00,
2013-06-14 20:32:00,61.4,49.0,30.08,South,180,0.0,0.0,63,0.00,,,0.00,Rainwise IP-100,2013-06-15 03:32:00,
2013-06-14 20:37:00,61.1,48.0,30.09,South,180,0.0,0.0,63,0.00,,,0.00,Rainwise IP-100,2013-06-15 03:37:00,
2013-06-14 20:42:00,60.8,49.0,30.08,South,180,0.0,0.0,64,0.00,,,0.00,Rainwise IP-100,2013-06-15 03:42:00,
2013-06-14 20:47:00,60.6,48.0,30.08,South,180,0.0,0.0,65,0.00,,,0.00,Rainwise IP-100,2013-06-15 03:47:00,
2013-06-14 20:52:00,60.3,48.0,30.08,South,180,0.0,0.0,65,0.00,,,0.00,Rainwise IP-100,2013-06-15 03:52:00,
2013-06-14 20:57:00,60.1,48.0,30.08,South,180,0.0,0.0,66,0.00,,,0.00,Rainwise IP-100,2013-06-15 03:57:00,
2013-06-14 21:01:00,60.0,48.0,30.08,South,180,0.0,0.0,66,0.00,,,0.00,Rainwise IP-100,2013-06-15 04:01:00,
2013-06-14 21:06:00,59.7,48.0,30.08,South,180,0.0,0.0,66,0.00,,,0.00,Rainwise IP-100,2013-06-15 04:06:00,
2013-06-14 21:11:00,59.5,48.0,30.08,South,180,0.0,0.0,67,0.00,,,0.00,Rainwise IP-100,2013-06-15 04:11:00,
2013-06-14 21:16:00,59.2,48.0,30.08,South,180,0.0,0.0,68,0.00,,,0.00,Rainwise IP-100,2013-06-15 04:16:00,
2013-06-14 21:21:00,59.0,48.0,30.08,South,180,0.0,0.0,68,0.00,,,0.00,Rainwise IP-100,2013-06-15 04:21:00,
2013-06-14 21:26:00,58.8,49.0,30.08,South,180,0.0,0.0,69,0.00,,,0.00,Rainwise IP-100,2013-06-15 04:26:00,
2013-06-14 21:31:00,58.7,49.0,30.08,South,180,0.0,0.0,69,0.00,,,0.00,Rainwise IP-100,2013-06-15 04:31:00,
2013-06-14 21:36:00,58.5,49.0,30.08,South,180,0.0,0.0,70,0.00,,,0.00,Rainwise IP-100,2013-06-15 04:36:00,
2013-06-14 21:41:00,58.3,48.0,30.08,South,180,0.0,0.0,70,0.00,,,0.00,Rainwise IP-100,2013-06-15 04:41:00,
2013-06-14 21:46:00,58.2,48.0,30.08,South,180,0.0,0.0,70,0.00,,,0.00,Rainwise IP-100,2013-06-15 04:46:00,
2013-06-14 21:51:00,58.1,49.0,30.08,SSE,157,0.0,0.0,71,0.00,,,0.00,Rainwise IP-100,2013-06-15 04:51:00,
2013-06-14 21:56:00,58.0,49.0,30.08,SSE,157,0.0,0.0,71,0.00,,,0.00,Rainwise IP-100,2013-06-15 04:56:00,
2013-06-14 22:01:00,57.9,49.0,30.08,SSE,157,0.0,0.0,72,0.00,,,0.00,Rainwise IP-100,2013-06-15 05:01:00,
2013-06-14 22:06:00,57.9,49.0,30.08,SSE,157,0.0,0.0,72,0.00,,,0.00,Rainwise IP-100,2013-06-15 05:06:00,
2013-06-14 22:11:00,57.8,50.0,30.08,SSE,157,0.0,0.0,73,0.00,,,0.00,Rainwise IP-100,2013-06-15 05:11:00,
2013-06-14 22:16:00,57.6,50.0,30.08,SSE,157,0.0,0.0,74,0.00,,,0.00,Rainwise IP-100,2013-06-15 05:16:00,
2013-06-14 22:21:00,57.4,50.0,30.08,SSE,157,0.0,0.0,75,0.00,,,0.00,Rainwise IP-100,2013-06-15 05:21:00,
2013-06-14 22:26:00,57.2,50.0,30.07,SSE,157,0.0,0.0,76,0.00,,,0.00,Rainwise IP-100,2013-06-15 05:26:00,
2013-06-14 22:31:00,57.0,50.0,30.08,SSE,157,0.0,0.0,77,0.00,,,0.00,Rainwise IP-100,2013-06-15 05:31:00,
2013-06-14 22:36:00,56.8,50.5,30.08,SSE,157,0.0,0.0,78,0.00,,,0.00,Rainwise IP-100,2013-06-15 05:36:00,
2013-06-14 22:41:00,56.5,50.0,30.08,SSE,157,0.0,0.0,79,0.00,,,0.00,Rainwise IP-100,2013-06-15 05:41:00,
2013-06-14 22:46:00,56.3,50.5,30.08,SSE,157,0.0,0.0,80,0.00,,,0.00,Rainwise IP-100,2013-06-15 05:46:00,
2013-06-14 22:51:00,56.2,50.0,30.07,SSE,157,0.0,0.0,81,0.00,,,0.00,Rainwise IP-100,2013-06-15 05:51:00,
2013-06-14 22:56:00,56.1,50.0,30.07,SSE,157,0.0,0.0,81,0.00,,,0.00,Rainwise IP-100,2013-06-15 05:56:00,
2013-06-14 23:00:00,55.9,50.5,30.07,SSE,157,0.0,0.0,82,0.00,,,0.00,Rainwise IP-100,2013-06-15 06:00:00,
2013-06-14 23:05:00,55.7,50.5,30.07,SSE,157,0.0,0.0,82,0.00,,,0.00,Rainwise IP-100,2013-06-15 06:05:00,
2013-06-14 23:10:00,55.5,50.5,30.07,SSE,157,0.0,0.0,82,0.00,,,0.00,Rainwise IP-100,2013-06-15 06:10:00,
2013-06-14 23:15:00,55.3,50.0,30.07,SSE,157,0.0,0.0,82,0.00,,,0.00,Rainwise IP-100,2013-06-15 06:15:00,
2013-06-14 23:20:00,55.2,50.5,30.07,SSE,157,0.0,0.0,84,0.00,,,0.00,Rainwise IP-100,2013-06-15 06:20:00,
2013-06-14 23:25:00,55.1,50.5,30.07,SSE,157,0.0,0.0,85,0.00,,,0.00,Rainwise IP-100,2013-06-15 06:25:00,
2013-06-14 23:30:00,55.0,50.5,30.06,SSE,157,0.0,0.0,85,0.00,,,0.00,Rainwise IP-100,2013-06-15 06:30:00,
2013-06-14 23:35:00,54.9,50.5,30.06,SSE,157,0.0,0.0,85,0.00,,,0.00,Rainwise IP-100,2013-06-15 06:35:00,
2013-06-14 23:40:00,54.7,50.5,30.06,SSE,157,0.0,0.0,85,0.00,,,0.00,Rainwise IP-100,2013-06-15 06:40:00,
2013-06-14 23:45:00,54.5,50.5,30.06,SSE,157,0.0,0.0,85,0.00,,,0.00,Rainwise IP-100,2013-06-15 06:45:00,
2013-06-14 23:50:00,54.3,50.5,30.06,SSE,157,0.0,0.0,86,0.00,,,0.00,Rainwise IP-100,2013-06-15 06:50:00,
2013-06-14 23:55:00,54.1,50.0,30.06,SSE,157,0.0,0.0,86,0.00,,,0.00,Rainwise IP-100,2013-06-15 06:55:00,